TULCEA current weather conditions

sailwx.info

Wind from 260 at 14 knots

Air temperature 2.0° C
Visibility: greater than 5.4 NM
Dewpoint -2.0° C

Last reported at 2019-Jan-16 15:00 UTC.
Time now 2019-Jan-16 16:01 UTC

Location: N 45°04' E 028°43'.
View on Google Maps.

See reports from other nearby stations

  
Tides and Currents Weather Stations Pressure Air Temp Water Temp Dewpoint Dewpoint Depression Visibility Wind Speed Wind Dir Waves Ship Positions
date/time (UTC)wind fromknots sea level pressurealtimeterstation pressurevisibilityair tempwater tempwave heightnotes
2019-Jan-16 15:00 260 14 5.4 2.0
2019-Jan-16 14:30 260 15 5.4 2.0
2019-Jan-16 14:00 260 17 5.4 2.0
2019-Jan-16 13:30 260 17 5.4 2.0
2019-Jan-16 13:00 250 19 5.4 2.0
2019-Jan-16 12:30 260 20 5.4 2.0
2019-Jan-16 12:00 260 24 5.4 2.0
2019-Jan-16 11:30 250 20 5.4 2.0
2019-Jan-16 11:00 250 21 5.4 1.0
2019-Jan-16 10:30 250 22 5.4 1.0
2019-Jan-16 10:00 250 20 5.4 1.0
2019-Jan-16 09:30 230 11 5.4 1.0
2019-Jan-16 09:00 220 6 5.4-0.0
2019-Jan-16 08:30 220 13 5.4-1.0
2019-Jan-16 08:00 220 13 5.4-2.0
2019-Jan-16 07:30 220 8 5.4-3.0
2019-Jan-16 07:00 200 7 5.4-3.0
2019-Jan-16 06:30 150 4 5.4-4.0
2019-Jan-16 06:00 190 7 5.4-5.0
2019-Jan-16 05:30 190 4 5.4-5.0
2019-Jan-16 05:00 160 6 5.4-5.0
2019-Jan-16 04:30 160 4 5.4-7.0
2019-Jan-16 04:00 180 2 5.4-6.0
2019-Jan-16 03:30 210 6 5.4-6.0
2019-Jan-16 03:00 190 4 5.4-6.0
2019-Jan-16 02:30 200 2 5.4-6.0
2019-Jan-16 02:00 190 1 5.4-6.0
2019-Jan-16 01:30 260 2 5.4-5.0
2019-Jan-16 01:00 210 4 5.4-6.0
2019-Jan-16 00:30 230 6 5.4-6.0
2019-Jan-16 00:00 260 7 5.4-5.0
2019-Jan-15 23:30 250 6 5.4-5.0
2019-Jan-15 23:00 220 4 5.4-5.0
2019-Jan-15 22:30 5.4-5.0
2019-Jan-15 22:00 310 9 5.4-2.0
2019-Jan-15 21:30 310 13 5.4-2.0
2019-Jan-15 21:00 5.4-4.0
2019-Jan-15 20:30 220 1 5.4-4.0
2019-Jan-15 20:00 5.4-5.0
2019-Jan-15 19:30 110 2 5.4-5.0
2019-Jan-15 19:00 290 5 5.4-5.0
2019-Jan-15 18:30 280 6 5.4-4.0
2019-Jan-15 18:00 270 5 5.4-4.0
2019-Jan-15 17:30 300 9 5.4-3.0
2019-Jan-15 17:00 300 9 5.4-4.0
2019-Jan-15 16:30 310 11 5.4-4.0
2019-Jan-15 16:00 320 12 5.4-4.0
2019-Jan-15 15:30 310 13 5.4-3.0
2019-Jan-15 15:00 320 8 5.4-3.0
2019-Jan-15 14:30 320 9 5.4-2.0
2019-Jan-15 14:00 320 9 5.4-1.0
2019-Jan-15 13:30 330 11 5.4-1.0
2019-Jan-15 13:00 340 11 5.4-1.0
2019-Jan-15 12:30 340 9 5.4-1.0
2019-Jan-15 12:00 350 13 5.4-0.0
2019-Jan-15 11:30 340 13 5.4-0.0
2019-Jan-15 11:00 350 12 5.4-1.0
2019-Jan-15 10:30 350 12 5.4-1.0
2019-Jan-15 10:00 340 13 5.4-1.0
2019-Jan-15 09:30 350 11 5.4-1.0
2019-Jan-15 09:00 350 13 3.8-0.0 Light snow.
2019-Jan-15 08:30 350 17 0.5-0.0 Snow. Mist.
2019-Jan-15 08:00 340 17 0.3-0.0 Heavy snow.
2019-Jan-15 07:30 340 17 0.8-0.0 Snow. Light low drifting snow. Mist.
2019-Jan-15 07:00 340 17 0.8-0.0 Snow. Light low drifting snow. Mist.
2019-Jan-15 06:30 340 19 1.0-0.0 Light snow. Light low drifting snow. Mist.
2019-Jan-15 06:00 340 20 0.6-0.0 Light snow. Light low drifting snow. Mist.
2019-Jan-15 05:30 330 21 2.3-0.0 Light snow.
2019-Jan-15 05:00 330 19 3.2-0.0 Light snow.
2019-Jan-15 04:30 330 19 3.8 1.0 Light snow.
2019-Jan-15 04:00 330 14 3.8 1.0 Precipitation.
2019-Jan-15 03:30 330 14 4.3 1.0
2019-Jan-15 03:00 330 13 4.3 1.0
2019-Jan-15 02:30 340 13 4.9 1.0
2019-Jan-15 02:00 340 13 5.4 1.0
2019-Jan-15 01:30 320 11 5.4 2.0
2019-Jan-15 01:00 330 4 3.2-0.0
2019-Jan-15 00:30 360 6 3.8-0.0
2019-Jan-15 00:00 220 7 3.2-0.0
2019-Jan-14 23:30 280 6 4.3 1.0
2019-Jan-14 23:00 260 6 3.8 1.0
2019-Jan-14 22:30 240 6 4.3 1.0
2019-Jan-14 22:00 260 8 4.3 1.0
2019-Jan-14 21:30 240 4 4.3 1.0
2019-Jan-14 21:00 260 8 4.3 1.0
2019-Jan-14 20:30 260 12 4.3 1.0
2019-Jan-14 20:00 230 6 4.9 1.0
2019-Jan-14 19:30 230 6 5.4 1.0
2019-Jan-14 19:00 250 9 5.4 1.0
2019-Jan-14 18:30 5.4 1.0
2019-Jan-14 18:00 230 9 5.4 2.0
2019-Jan-14 17:30 160 5 5.4 2.0
2019-Jan-14 17:00 130 6 5.4 2.0
2019-Jan-14 16:30 240 19 5.4 3.0
2019-Jan-14 16:00 240 20 5.4 3.0